Regional Weather Roundup
Issued by NWS

Home | Current Version | Previous Version | Graphics & Text | Print | Product List | Glossary On
Versions: 1 2 3 4 5 6 7 8 9 10 11 12 13 14 15 16 17 18 19 20 21 22 23 24 25 26 27 28 29 30 31 32 33 34 35 36 37 38 39 40 41 42 43 44 45 46 47 48 49 50
000
ASUS43 KLMK 240702
RWRKY
KENTUCKY REGIONAL WEATHER ROUNDUP
NATIONAL WEATHER SERVICE LOUISVILLE KY
300 AM EDT SAT SEP 24 2016

NOTE "FAIR" INDICATES FEW OR NO CLOUDS BELOW 12,000 FEET
WITH NO SIGNIFICANT WEATHER AND/OR OBSTRUCTIONS TO VISIBILITY.

KYZ001>023-026-027-061>063-070>075-240800-
WESTERN AND SOUTH CENTRAL KENTUCKY

CITY           SKY/WX    TMP DP  RH WIND       PRES   REMARKS
PADUCAH        FOG       67  66  97 CALM      30.05S VSB 1/2
HENDERSON      CLEAR     63  59  88 CALM      30.07R
OWENSBORO      NOT AVBL
HOPKINSVILLE   CLEAR     70  67  90 CALM      30.06S
BOWLING GREEN  CLEAR     67  66  97 CALM      30.08R FOG
GLASGOW        CLEAR    N/A N/A N/A CALM      30.08S FOG
$$

KYZ024-025-028>034-038-045-046-053-240800-
NORTH CENTRAL KENTUCKY

CITY           SKY/WX    TMP DP  RH WIND       PRES   REMARKS
LOUISVILLE/SDF CLEAR     72  66  81 CALM      30.07S
LOUISVILLE/LOU CLEAR     71  65  81 CALM      30.08S
FORT KNOX      CLEAR     64  63  96 CALM      30.07S
$$

KYZ035>037-039>044-047>052-055>060-089>105-240800-
NORTHEAST KENTUCKY

CITY           SKY/WX    TMP DP  RH WIND       PRES   REMARKS
LEXINGTON      CLEAR     69  63  81 CALM      30.10S
COVINGTON      CLEAR     68  66  93 CALM      30.09R
FRANKFORT      CLEAR     67  63  87 CALM      30.08S
$$

KYZ054-064>069-076>088-106>120-240800-
SOUTHEAST KENTUCKY

CITY           SKY/WX    TMP DP  RH WIND       PRES   REMARKS
JACKSON        CLEAR     69  63  81 CALM      30.11S
LONDON         CLEAR     65  61  87 CALM      30.11S
SOMERSET       CLEAR     63  63 100 CALM      30.12R
MIDDLESBORO    CLEAR     62  62 100 CALM      30.13F
MONTICELLO     SUNNY     61  61 100 W7        30.12S
$$





USA.gov is the U.S. government's official web portal to all federal, state and local government web resources and services.